Theta_e
288 288 289 288 288 287 286 285 285 285 284 284 284 283 283 282 281 280 279 278 278 277 277 276 276 276 276 275 275 275 274 274 274 274 273 273 273 272 272 272 272 272 273 273 273 273 273 273 273 273 273 272 272 272 272 272 272 272 273 274 274 273 273
288 288 288 288 288 287 286 285 285 285 284 284 284 283 283 282 281 280 279 278 278 277 277 276 276 275 275 275 275 274 274 273 273 273 273 272 272 272 272 272 272 272 272 272 272 272 272 272 272 272 272 272 272 271 271 271 271 271 272 273 273 273 272
288 288 288 288 287 287 286 285 285 285 284 284 284 283 283 282 281 280 279 279 278 277 276 276 276 275 275 275 275 274 274 273 273 272 272 272 272 272 272 271 271 271 271 271 271 271 271 272 272 271 271 271 271 271 271 271 270 270 271 271 272 272 272
287 287 287 287 287 287 286 285 285 284 284 284 283 283 283 282 281 280 280 279 278 277 276 276 276 275 275 275 274 274 273 273 272 272 272 272 272 272 272 271 271 271 270 270 270 270 271 271 271 271 271 271 271 270 270 270 269 270 270 270 271 271 271
287 287 287 287 287 287 286 285 284 284 284 283 283 282 282 282 281 280 280 279 278 277 277 276 276 275 275 274 274 274 273 273 272 272 271 271 271 271 271 271 270 270 270 269 269 270 270 271 270 270 270 270 270 270 269 269 269 269 269 269 270 270 271
287 286 287 286 286 286 285 285 284 284 283 282 282 281 281 281 280 280 279 278 278 277 276 276 275 275 274 274 274 273 273 272 272 271 271 271 271 271 270 270 270 270 269 269 269 269 269 270 270 270 269 270 269 269 269 269 269 269 269 269 269 269 270
286 286 286 286 286 286 285 284 284 283 283 282 281 280 280 280 280 279 278 278 277 277 276 275 275 275 274 274 273 273 272 272 271 271 271 270 270 270 270 269 269 269 269 269 269 269 269 269 269 269 269 269 269 269 269 269 268 268 268 268 268 268 269
286 286 286 285 285 285 285 284 283 283 282 281 280 280 280 279 279 278 278 277 277 276 276 275 275 274 274 273 273 272 272 271 271 270 270 270 270 269 269 269 268 268 268 268 268 268 268 268 268 268 268 268 268 268 269 269 268 268 268 268 268 268 268
286 285 285 285 285 285 284 283 283 282 281 280 280 279 279 278 278 277 277 277 276 275 275 274 274 274 274 273 272 272 272 271 271 270 269 269 269 269 268 268 268 267 267 267 267 267 267 267 267 267 268 268 268 268 268 268 268 268 268 267 267 267 267
285 284 284 284 284 284 283 283 282 281 280 280 279 279 278 277 277 277 276 276 275 275 274 274 274 274 273 272 272 272 271 271 270 270 269 269 268 268 268 267 267 267 267 267 267 267 267 267 267 267 267 267 267 268 268 267 267 267 267 267 267 267 267
284 284 283 283 283 283 283 282 281 280 279 279 278 278 277 277 276 276 275 275 274 274 274 274 274 273 272 272 272 271 271 271 270 269 269 268 268 268 267 267 267 267 266 266 266 267 267 267 267 267 267 267 267 267 267 267 267 267 267 267 267 267 267
284 283 283 282 282 282 282 281 280 279 279 278 277 277 277 276 276 275 275 274 274 274 273 273 273 273 272 272 271 271 271 270 270 269 268 268 268 268 267 267 267 266 266 266 266 266 267 267 267 267 267 267 267 267 267 266 266 266 266 266 266 267 266
283 282 282 282 281 281 281 280 279 279 278 278 277 277 276 276 275 275 274 274 273 273 273 272 272 272 272 272 272 271 271 270 269 268 267 267 267 267 267 267 266 266 266 266 266 266 266 266 266 266 266 266 266 266 266 266 266 266 266 266 266 266 266
282 281 281 281 280 280 280 279 279 278 278 277 277 276 276 275 275 274 274 273 273 272 272 272 272 271 271 271 271 271 271 270 269 268 267 267 267 267 267 267 266 266 266 266 266 266 266 266 266 266 266 266 266 266 266 266 266 266 266 266 266 266 266
281 281 280 280 279 279 279 279 278 278 278 277 276 275 275 274 274 273 273 272 272 271 271 271 271 271 271 270 270 271 271 269 268 268 267 267 267 267 267 267 266 266 266 266 266 266 266 266 266 266 266 266 266 266 266 266 266 266 266 266 266 266 266
280 279 279 279 278 279 279 279 278 278 277 277 276 275 274 274 273 273 272 272 271 271 270 270 270 270 270 270 270 270 270 268 267 267 267 267 267 267 266 266 266 266 266 266 266 266 266 266 266 266 266 267 267 266 267 266 266 266 266 266 266 266 266
279 278 278 278 278 278 279 279 278 278 277 276 275 274 273 273 273 272 272 271 271 271 270 270 270 270 270 269 269 269 269 268 267 267 267 267 267 266 266 266 267 267 266 266 267 267 267 267 267 267 267 267 267 266 266 266 266 266 266 266 265 265 265
278 278 278 278 278 279 278 278 277 277 276 275 274 273 273 272 272 272 271 271 271 270 270 270 270 270 269 269 269 269 268 268 267 266 266 266 266 266 266 266 267 267 266 266 266 266 267 267 267 267 266 266 266 266 266 266 266 265 265 265 265 265 265
278 278 278 278 278 278 277 277 276 275 275 274 273 273 272 272 271 271 271 270 270 270 270 269 269 269 269 269 269 268 268 268 267 267 266 265 265 265 266 266 267 267 266 266 266 266 266 266 266 266 266 266 266 266 265 265 265 265 265 265 265 265 264
278 278 278 277 277 277 276 276 275 274 274 273 273 272 271 271 271 270 270 270 270 269 269 269 269 269 269 269 268 268 268 267 267 266 266 265 265 265 265 266 266 266 266 266 266 266 266 266 266 266 266 266 265 265 265 265 265 265 265 265 264 264 263
277 277 276 276 276 275 275 275 274 274 273 273 272 271 271 270 270 270 269 269 268 268 268 268 268 269 269 269 268 267 267 267 267 266 266 266 266 266 266 266 266 266 266 266 266 266 266 266 265 265 265 265 265 265 265 265 265 265 265 264 264 263 263
276 276 275 275 275 275 274 274 273 273 272 272 271 271 270 270 269 269 268 268 267 267 267 267 267 268 269 269 267 267 267 266 266 266 266 266 266 266 266 266 266 266 266 266 266 266 266 265 265 265 265 265 265 265 265 265 265 264 264 264 263 263 262
275 274 274 274 274 274 273 273 273 272 272 271 271 270 270 269 269 268 268 267 267 266 266 266 266 267 268 268 267 266 266 266 265 265 266 266 266 267 267 267 266 266 266 266 266 265 265 265 265 265 265 265 265 265 265 264 264 264 264 264 263 263 262
274 274 273 273 273 273 273 272 272 271 271 271 270 270 269 269 268 268 268 267 266 266 266 265 265 266 267 267 266 266 265 265 265 266 266 266 266 266 266 266 266 266 266 266 265 265 265 265 264 264 264 264 264 264 264 264 264 264 263 263 263 263 262
273 273 273 273 272 272 272 272 271 271 270 270 269 269 269 268 268 268 267 267 266 266 265 265 265 265 265 266 266 265 265 265 265 265 266 266 266 266 266 266 266 266 265 265 265 265 264 264 264 264 264 264 264 264 264 263 263 263 263 263 263 263 262
272 272 272 272 272 271 271 271 270 270 269 269 269 268 268 268 268 267 267 267 266 266 265 265 265 265 265 265 265 264 264 264 264 265 265 266 266 266 266 266 265 265 265 264 264 264 264 264 264 264 264 263 263 263 263 263 263 263 262 262 262 262 263
272 272 271 271 271 271 270 270 270 269 269 268 268 268 268 267 267 267 266 266 266 266 265 265 265 265 264 264 264 264 264 263 264 264 264 265 265 265 265 265 265 265 264 264 264 264 264 264 263 263 263 263 263 263 263 263 262 262 262 262 262 262 263
271 271 270 270 270 270 269 269 269 269 268 268 268 267 267 267 267 267 266 266 266 266 265 265 264 264 264 264 264 264 264 263 263 263 264 264 265 265 265 265 264 264 264 264 264 264 263 263 263 263 263 263 263 263 262 262 262 262 262 262 262 262 262
270 270 270 270 269 269 269 269 268 268 268 267 267 267 267 267 266 266 266 266 266 265 265 264 263 263 263 264 264 264 264 263 263 263 263 264 264 264 264 264 264 264 264 264 263 263 263 263 262 263 262 262 263 262 262 262 262 262 262 262 262 262 262
270 270 270 269 269 269 268 268 268 268 267 267 267 267 266 266 266 266 266 265 265 264 263 263 263 263 263 263 264 263 263 263 263 263 263 263 263 264 264 264 264 263 263 263 263 263 262 262 262 262 262 262 262 262 262 262 262 262 262 262 262 262 262
269 269 269 269 268 268 268 268 268 267 267 267 266 266 266 266 266 265 265 265 264 263 263 263 263 263 263 263 263 263 263 263 263 263 263 263 263 263 263 263 263 263 263 263 262 262 262 262 262 262 262 262 262 262 261 261 262 261 261 261 261 261 262
269 269 268 268 268 268 268 267 267 267 266 266 266 266 266 265 265 265 264 264 263 263 263 263 263 263 263 263 263 263 263 263 263 263 263 263 263 263 263 263 263 263 262 262 262 262 262 262 262 262 262 262 262 261 261 261 261 261 261 261 261 261 261
268 268 268 268 268 267 267 267 267 267 266 266 266 265 265 265 264 264 263 263 263 262 262 262 262 262 263 263 263 263 263 263 262 262 263 263 262 262 262 263 262 262 262 262 262 262 262 262 262 261 261 261 261 261 261 261 261 261 261 261 261 261 261
268 268 267 267 267 267 267 266 266 266 266 266 265 265 264 264 264 263 263 263 263 263 263 263 263 263 263 263 263 263 263 263 262 262 262 262 262 262 262 262 262 262 262 262 262 262 262 262 261 261 261 261 261 261 261 261 261 261 261 261 260 260 260
267 267 267 267 267 267 266 266 266 265 265 265 264 264 264 263 263 263 263 263 263 263 263 263 263 262 262 262 262 262 262 262 262 262 262 262 262 262 262 262 263 262 262 262 262 262 262 262 261 261 261 261 261 261 261 261 261 261 261 260 260 260 260
266 266 266 266 266 266 266 266 266 265 265 264 264 263 263 263 263 263 263 263 263 263 263 262 262 262 262 262 262 262 262 262 262 262 262 262 262 263 262 262 262 262 262 262 262 262 262 261 261 261 261 261 261 261 261 261 261 261 260 260 260 260 260
Wind_Speed
49 48 46 43 40 38 35 32 29 26 24 23 21 20 20 20 21 21 22 22 23 23 23 22 22 22 22 21 22 23 24 25 25 26 26 26 26 26 27 27 28 32 36 33 26 25 27 28 28 29 28 27 28 27 25 22 24 29 32 33 33 33 33
52 51 49 46 43 40 37 34 32 29 26 24 22 21 21 20 21 21 22 22 24 24 23 23 23 23 22 22 23 23 24 25 25 25 26 26 26 26 26 27 28 30 34 35 30 27 29 30 29 29 28 27 26 27 27 25 24 26 29 31 32 31 29
54 53 51 48 45 43 40 37 34 31 29 26 24 23 22 21 20 21 22 23 23 23 24 24 24 23 22 22 24 25 24 25 25 25 26 27 26 27 28 27 25 27 31 34 31 28 29 30 28 28 28 28 28 29 29 26 20 20 25 28 30 30 29
56 55 53 50 48 45 43 40 37 34 31 28 26 24 22 21 21 21 22 23 23 23 24 24 24 24 23 23 25 26 25 25 26 26 26 28 27 27 29 28 26 26 26 27 27 26 28 29 29 28 29 30 30 27 26 22 18 21 27 29 29 29 29
57 56 55 53 51 48 45 42 39 36 33 29 27 25 23 22 22 22 22 23 23 24 24 25 25 25 24 25 26 27 27 26 26 27 27 28 28 27 27 28 28 27 23 24 27 30 31 31 30 30 30 30 29 24 20 17 18 24 29 29 29 29 28
58 58 57 56 53 50 47 43 40 37 34 30 27 25 24 23 22 22 23 23 24 24 25 25 25 25 25 26 27 27 27 27 27 28 28 28 27 26 26 27 28 28 27 28 31 32 33 32 31 29 29 28 25 20 17 18 21 26 27 26 27 27 26
57 58 58 57 54 51 48 44 41 38 34 30 28 27 25 24 23 23 24 24 25 25 25 26 26 26 26 27 27 27 27 27 28 29 29 28 27 26 26 27 27 28 29 29 30 31 31 31 29 27 26 25 22 19 18 20 23 23 20 21 24 24 24
54 56 57 57 55 52 49 45 42 38 34 31 29 27 25 24 23 24 24 25 25 25 26 26 26 27 28 27 28 28 27 28 29 29 29 28 27 26 25 26 26 26 27 27 28 28 27 27 27 24 23 22 21 21 20 18 17 17 18 21 23 23 24
51 54 56 57 56 53 49 46 42 39 34 31 29 26 25 25 24 25 25 25 26 26 26 26 27 28 28 28 28 28 28 29 29 29 29 28 27 25 24 24 25 24 24 24 24 25 24 23 22 20 18 18 16 17 17 15 15 17 20 22 22 23 25
49 51 54 56 56 53 49 46 42 37 32 29 27 25 25 25 25 25 26 26 27 27 27 27 28 29 29 29 29 29 29 30 30 29 28 27 26 25 24 24 24 24 23 22 22 21 20 19 18 16 16 15 15 15 16 16 18 20 21 21 21 23 24
46 49 51 53 54 53 49 45 40 34 30 28 26 26 25 26 26 26 27 27 28 28 28 29 29 30 30 30 30 30 30 30 29 28 27 26 25 24 24 25 25 24 22 21 20 19 17 17 18 16 14 15 16 16 17 19 21 22 22 20 21 24 24
43 45 48 50 52 51 47 42 36 31 28 27 27 27 27 27 28 28 28 29 29 29 30 30 31 32 32 31 30 30 29 29 27 27 27 26 25 23 23 24 25 24 21 19 19 19 19 18 19 18 18 19 20 20 20 22 23 22 22 22 24 26 25
40 42 45 48 50 49 44 38 33 29 27 26 27 28 29 28 28 29 30 30 30 30 31 32 32 33 32 31 29 29 29 28 26 25 25 26 26 25 24 24 24 24 24 23 22 23 23 22 22 24 25 24 23 22 22 23 23 23 21 22 25 28 28
37 39 42 45 47 46 41 35 31 28 27 27 27 29 30 29 29 29 31 31 31 32 32 32 32 31 31 31 30 29 28 26 24 24 24 25 28 29 29 27 26 26 27 27 28 29 29 29 28 27 26 23 20 21 22 24 25 24 22 22 26 30 30
33 36 39 42 43 41 36 32 29 27 27 27 27 28 28 28 29 29 29 30 30 31 32 32 31 31 30 31 32 31 28 26 25 25 26 28 30 30 30 28 28 29 29 30 30 31 31 30 28 25 22 20 19 20 22 22 24 24 24 26 28 31 31
30 32 35 37 38 36 33 31 29 28 28 27 27 26 25 26 28 29 29 29 30 30 32 33 33 32 32 32 33 32 30 28 28 28 30 32 32 31 30 31 31 31 30 29 28 27 27 26 23 21 19 18 18 19 20 20 22 25 25 27 29 31 31
26 28 30 32 33 32 31 30 29 28 27 27 26 25 26 29 31 32 33 33 34 34 35 36 34 33 33 34 34 32 31 30 31 32 33 34 34 33 34 34 33 27 25 25 24 23 23 22 21 20 20 20 20 22 23 24 27 29 27 28 29 30 30
20 23 25 28 29 29 29 29 28 27 26 26 26 25 27 30 33 34 35 35 36 36 36 36 35 34 35 35 33 32 31 31 32 33 34 34 34 34 34 33 29 23 22 24 24 24 24 24 24 24 24 24 25 26 27 28 29 29 28 29 31 30 31
19 21 24 26 27 28 28 28 26 25 25 25 25 24 26 29 32 34 34 34 35 36 36 37 37 36 35 34 32 31 30 30 30 31 32 31 29 30 31 30 25 20 20 22 24 26 27 27 27 27 26 27 27 28 28 28 29 30 30 32 34 33 32
21 23 25 26 26 26 26 26 25 25 25 25 24 24 25 29 32 33 34 34 34 35 36 37 37 37 34 31 29 29 28 28 27 27 28 27 26 26 27 25 21 18 17 20 23 25 26 27 27 27 27 27 28 28 29 29 30 31 32 34 35 34 33
22 24 25 25 25 25 26 25 25 25 24 24 24 24 25 28 31 32 33 34 34 34 35 36 36 35 32 28 26 26 26 26 24 24 25 26 27 26 24 23 23 21 19 21 23 25 26 26 26 27 27 28 29 30 31 31 32 32 32 33 33 32 33
23 23 24 25 25 25 25 25 25 25 24 24 24 24 24 26 28 29 30 32 32 33 33 34 34 34 31 27 25 25 25 24 22 23 25 26 26 25 23 25 28 26 24 24 25 27 27 26 26 27 28 30 31 31 32 32 32 31 31 31 31 31 32
23 23 24 24 25 25 25 25 24 24 24 23 23 24 24 25 27 28 29 31 32 33 32 32 32 33 31 28 25 23 23 22 21 23 24 24 24 24 26 28 29 27 25 25 26 26 26 26 27 28 29 31 32 32 32 31 31 31 30 30 31 30 31
23 24 24 24 24 24 24 24 24 24 24 24 24 24 25 26 27 29 30 31 31 31 32 31 31 31 31 27 23 21 20 19 20 22 23 23 24 26 27 27 26 24 23 23 24 25 25 26 28 29 30 31 32 32 32 31 30 30 29 29 29 29 29
24 24 24 24 25 24 24 24 24 24 24 24 24 25 26 27 28 29 30 31 30 30 32 32 30 31 31 27 23 20 18 19 22 23 23 25 27 27 25 25 24 23 22 23 24 25 25 27 29 30 30 31 31 31 30 30 29 28 28 27 27 27 27
25 25 24 24 24 24 24 23 23 24 24 24 25 26 27 27 28 29 29 30 30 31 33 34 33 33 32 28 25 22 21 21 23 23 23 25 26 26 25 25 25 24 23 23 24 25 26 28 29 30 30 30 29 29 28 28 27 26 26 25 25 25 25
25 25 25 25 25 24 23 23 23 24 24 25 26 27 27 27 28 29 29 29 29 30 32 34 34 33 31 28 26 26 26 25 24 22 22 24 25 26 26 26 26 25 24 24 25 26 27 28 29 29 29 28 28 27 26 25 24 24 23 22 23 24 24
25 24 24 24 23 23 23 23 24 25 25 25 25 26 26 27 28 28 28 28 28 27 29 30 30 29 28 27 27 27 28 28 26 24 24 25 27 27 27 27 26 26 25 26 27 27 28 28 28 27 27 27 26 25 24 23 22 21 21 21 22 23 23
24 24 23 23 23 23 23 25 25 24 23 24 24 25 26 26 26 26 25 24 23 23 24 25 25 25 25 25 26 27 27 27 27 27 26 27 29 29 28 28 27 27 27 28 27 27 26 26 26 25 25 25 24 23 23 22 21 20 20 20 21 22 22
24 24 23 23 23 24 24 25 25 23 22 23 24 25 25 25 24 24 22 19 18 20 22 22 23 23 24 24 24 25 26 25 26 26 26 27 28 29 29 28 28 28 27 26 25 25 24 24 24 24 23 23 23 22 21 21 20 19 20 20 21 22 21
22 22 22 22 23 23 23 23 23 22 22 23 23 24 24 24 23 22 19 16 17 20 21 22 22 22 22 22 23 24 24 24 24 25 25 25 26 27 27 27 27 26 24 23 22 22 22 22 22 22 21 22 21 20 20 20 20 19 19 20 20 21 21
21 22 23 23 23 24 23 23 22 22 22 22 23 23 23 22 22 20 16 14 16 18 19 19 20 20 19 20 21 22 23 24 25 26 25 25 25 26 25 25 24 22 20 20 21 21 21 21 20 20 20 21 20 20 19 19 19 19 20 20 20 20 20
20 21 21 22 23 23 24 24 23 23 22 22 22 21 21 20 19 17 15 15 17 20 20 20 20 19 19 18 18 18 20 22 24 25 24 25 25 24 23 22 21 20 19 20 20 20 20 20 20 20 20 20 20 19 19 18 19 19 19 20 20 19 19
21 20 21 22 23 23 24 24 23 23 24 23 22 21 19 18 16 16 17 19 21 22 23 23 23 22 21 20 20 18 17 19 21 21 22 22 22 21 21 21 21 21 21 21 21 20 20 20 20 20 20 20 20 19 18 18 18 18 19 19 19 18 18
21 21 22 23 24 24 24 24 24 24 24 24 23 21 19 17 17 18 19 20 21 22 22 22 24 23 22 22 23 22 21 20 20 20 20 21 21 21 21 21 22 22 22 22 22 21 21 20 21 20 20 19 19 19 18 17 17 18 18 18 17 17 16
22 22 22 23 24 25 25 26 26 26 25 25 24 22 20 19 20 20 20 21 23 24 25 25 25 24 24 24 25 26 26 24 23 22 22 23 23 24 23 23 23 23 23 23 23 22 21 20 21 20 19 19 19 18 17 17 17 17 17 17 16 15 15
Wind_Direction
250 249 248 247 246 245 245 246 246 246 247 249 252 254 256 258 259 260 259 260 262 264 266 267 269 270 270 271 272 273 273 273 272 270 268 267 267 266 267 266 264 266 270 272 271 271 274 278 281 283 285 287 289 291 291 291 293 297 299 300 300 300 301
250 249 248 245 244 244 243 243 243 243 244 246 250 252 254 257 259 260 260 260 262 265 267 268 269 272 274 275 275 275 274 274 272 271 270 268 268 269 268 266 265 266 269 273 274 273 276 279 281 283 284 285 286 287 289 290 291 294 298 300 301 300 298
250 249 247 244 243 243 242 241 241 241 242 244 247 250 254 257 258 260 261 261 263 264 266 269 271 273 276 277 278 278 277 276 274 273 272 271 270 269 268 265 264 264 267 272 275 275 276 279 280 280 280 282 284 286 290 291 290 292 296 299 300 298 296
249 248 246 244 242 241 240 240 239 240 241 242 245 248 252 255 257 260 262 262 263 264 265 268 271 274 276 277 278 278 278 278 278 277 275 274 272 269 267 264 261 262 265 271 273 274 275 277 278 278 279 283 286 287 289 290 289 293 297 298 298 296 295
249 246 245 243 242 241 240 239 239 240 241 240 242 246 249 253 256 259 262 262 263 263 265 268 270 273 275 276 276 278 279 279 279 279 278 275 272 269 266 264 262 262 264 266 269 272 276 278 279 282 283 287 289 289 288 288 288 293 296 297 297 296 294
249 247 245 243 242 241 240 239 239 241 240 239 241 243 246 250 254 257 260 262 263 264 266 267 269 272 273 275 276 277 279 280 280 280 278 274 271 268 265 263 264 265 264 266 269 273 277 280 282 284 285 287 288 286 285 288 289 292 294 295 298 298 295
251 248 246 244 242 241 239 239 239 240 239 238 239 241 245 249 252 255 258 260 263 264 265 266 268 272 274 275 276 277 278 279 280 280 277 273 270 267 264 264 264 266 266 268 271 274 278 282 284 285 285 288 288 285 284 287 289 289 289 292 296 297 294
253 250 246 243 242 241 240 239 238 238 237 236 238 242 246 249 252 255 257 260 262 263 264 266 269 272 274 275 276 277 277 279 280 278 274 270 268 266 264 264 264 266 268 270 272 276 279 283 284 284 285 287 288 287 286 285 284 284 285 289 293 293 293
255 251 247 244 242 240 239 238 238 237 236 237 240 244 247 250 253 255 257 259 261 261 263 266 270 273 275 275 276 276 277 279 278 274 269 266 266 265 263 262 262 262 264 267 270 275 278 279 280 280 281 281 281 281 281 278 277 280 285 290 291 289 293
256 252 248 244 242 240 238 238 237 237 237 240 243 245 247 251 253 255 257 258 259 261 263 266 270 273 274 274 274 275 277 278 275 269 265 263 263 264 262 260 259 257 259 263 267 271 273 272 271 273 274 275 275 275 276 276 278 283 287 289 288 288 292
257 253 248 244 241 240 239 238 237 236 237 240 243 246 247 250 253 254 256 257 258 260 264 267 270 272 272 272 273 275 277 276 271 265 262 261 261 262 260 257 256 255 256 260 263 265 265 265 268 269 268 270 274 276 276 278 282 286 287 286 286 288 291
259 254 249 244 240 238 238 238 237 237 239 242 245 248 250 251 253 254 254 256 258 260 263 267 269 270 270 270 271 275 276 274 268 263 261 262 263 262 260 256 254 253 253 255 259 263 264 264 265 265 267 274 280 281 280 280 282 283 283 282 284 286 289
261 256 250 244 239 236 235 236 236 237 241 244 247 251 252 252 252 254 255 257 258 260 263 265 267 269 271 272 273 276 277 273 267 261 259 261 263 265 265 258 250 248 250 253 259 263 263 261 261 267 274 282 286 287 286 285 284 283 280 278 281 285 288
262 256 251 245 239 235 233 235 237 240 244 246 248 252 254 256 255 254 256 258 259 261 264 266 268 270 274 278 280 279 277 272 267 262 259 259 262 265 267 260 251 249 252 257 263 264 263 262 265 271 277 282 284 284 284 284 283 281 277 274 278 284 287
262 257 252 245 237 233 233 237 241 244 247 248 248 248 249 255 258 257 257 258 260 263 265 267 270 273 276 280 281 280 279 276 271 266 264 265 266 266 266 262 258 260 263 265 264 261 261 264 268 273 278 282 284 283 281 280 278 277 277 277 279 282 287
260 255 250 242 234 232 236 241 245 248 248 248 247 242 238 242 249 253 254 255 258 260 263 266 270 274 277 278 279 280 280 277 274 270 269 270 270 269 267 265 265 266 266 262 258 257 262 267 270 273 275 276 276 277 278 279 279 281 283 282 281 283 287
258 252 244 237 232 235 242 247 249 250 249 247 243 237 233 235 239 244 248 252 257 259 262 266 270 273 275 277 277 277 275 273 272 271 271 271 270 269 267 267 268 266 258 252 252 256 261 262 261 260 258 256 258 264 272 277 280 283 285 284 283 284 285
253 245 239 236 238 244 249 252 251 250 247 246 243 237 236 239 242 246 250 254 259 262 265 269 271 272 274 275 275 273 270 268 266 265 266 267 269 269 266 265 265 259 249 249 251 248 244 244 247 250 251 254 262 269 273 276 278 280 282 282 283 284 285
247 244 243 245 248 250 251 251 250 247 244 244 242 237 237 242 246 250 254 259 262 266 269 271 273 274 275 275 272 269 266 263 261 260 259 258 260 263 265 266 263 253 248 251 249 243 241 243 247 251 255 262 268 273 276 276 277 278 279 280 282 282 283
252 251 251 252 252 251 251 251 249 247 245 243 241 237 236 242 248 253 258 262 265 267 270 272 275 277 276 274 271 267 264 261 259 257 255 252 250 254 259 263 262 253 251 255 252 248 248 249 251 256 261 267 272 274 276 278 278 279 279 278 279 279 278
258 257 256 255 254 253 252 251 250 248 245 244 243 241 240 246 252 257 261 265 267 268 271 273 276 277 277 274 269 266 263 261 256 250 249 252 254 256 256 256 259 260 260 260 258 258 258 256 257 260 263 269 274 276 279 281 281 281 279 278 278 277 276
259 257 255 254 253 252 251 250 249 248 245 244 244 244 245 248 252 257 262 266 268 269 270 273 274 276 277 275 271 267 263 261 255 248 246 249 252 255 253 250 255 260 262 259 257 257 257 256 257 262 267 273 278 280 283 284 284 282 280 279 278 277 276
258 256 254 254 253 252 252 251 250 250 249 248 247 248 249 251 253 257 261 265 267 268 269 269 270 274 276 275 272 269 264 258 251 248 249 251 250 249 249 249 252 256 257 255 252 249 251 255 261 268 274 279 282 284 286 286 285 283 282 280 279 278 277
260 257 256 256 256 255 255 255 254 254 253 251 251 252 254 257 259 261 262 262 264 265 266 267 268 270 273 274 273 268 260 255 253 251 251 252 250 247 248 249 251 251 249 246 245 246 253 262 269 275 279 282 284 286 287 287 286 284 283 281 280 280 279
262 260 258 259 259 259 259 258 257 257 256 255 256 257 260 263 265 265 265 264 262 259 260 262 263 264 269 273 275 269 258 250 248 247 247 249 250 249 249 248 247 245 243 243 246 253 262 269 274 277 280 283 285 286 287 287 286 284 283 281 281 281 281
262 261 259 260 260 260 260 260 259 259 258 258 260 263 266 269 269 268 267 266 263 258 255 255 256 259 265 270 272 268 261 251 243 240 244 249 249 247 246 245 243 242 243 246 253 261 268 273 276 279 281 283 285 286 287 287 286 284 283 282 283 283 283
264 262 260 260 261 261 262 262 261 260 260 261 265 269 271 270 269 268 267 266 264 260 256 255 255 257 262 265 265 263 260 255 248 241 241 244 244 241 239 238 239 242 247 254 262 268 271 274 276 278 281 283 286 288 288 287 285 283 283 284 284 283 285
266 265 263 261 262 262 262 261 260 260 264 268 271 272 272 271 270 271 271 270 268 262 257 255 255 256 258 258 257 255 253 251 247 242 239 238 237 236 235 236 241 247 255 261 267 269 271 272 274 277 281 284 288 289 288 286 284 283 284 284 285 285 287
266 264 262 260 259 259 259 261 263 267 271 273 273 272 272 274 275 275 274 271 265 258 254 253 253 254 255 255 254 252 250 247 243 240 238 237 236 237 240 245 250 256 261 264 266 267 268 270 274 278 282 286 289 289 287 284 284 284 285 285 286 286 288
266 265 262 259 258 258 259 262 268 272 274 274 275 275 275 276 277 276 274 266 253 246 247 249 251 253 254 254 253 251 247 243 239 238 237 237 238 241 246 251 255 258 260 261 261 263 267 271 276 280 284 287 289 288 285 284 285 285 286 287 287 288 289
265 264 262 260 259 260 262 265 269 273 276 276 277 277 276 277 276 274 268 256 243 241 244 247 249 253 255 255 253 248 243 239 236 235 236 237 240 244 247 251 254 254 254 256 259 264 269 274 277 280 285 288 290 287 285 285 285 286 287 288 288 288 289
263 261 260 260 261 262 264 266 269 272 275 276 276 276 276 276 275 270 263 252 244 244 245 246 249 252 255 257 256 249 242 237 235 235 236 238 243 247 249 249 249 248 250 255 261 267 272 275 277 281 286 289 288 286 284 284 285 288 289 289 289 289 289
261 260 259 260 262 264 268 270 272 273 274 275 275 274 273 273 268 259 250 245 244 247 249 249 252 255 256 259 261 256 248 242 239 239 240 242 245 248 248 244 242 244 250 256 263 269 274 277 278 282 286 288 287 284 283 283 285 287 288 288 288 288 288
263 262 260 261 262 264 268 271 273 274 275 277 276 274 272 271 263 247 237 235 238 245 250 251 251 253 255 256 258 256 251 246 242 241 241 242 243 244 243 241 242 246 251 256 263 270 275 276 278 282 285 287 286 283 282 284 284 286 287 287 286 286 288
270 268 266 265 265 265 266 268 267 267 268 269 270 270 266 260 250 241 236 232 231 235 241 244 245 248 252 255 257 256 252 248 245 242 242 242 243 244 244 244 247 251 253 255 260 267 272 274 277 281 284 285 284 284 284 284 285 285 285 284 285 285 287
279 276 272 270 268 268 268 267 266 265 263 260 259 257 251 241 237 236 234 230 228 230 235 239 242 248 255 263 266 264 258 253 250 247 247 247 246 245 245 247 250 252 253 254 257 264 270 274 276 280 283 283 283 284 284 284 284 284 284 284 283 284 286